GW2477 Weather Reports


time (UTC)temp
C
wind
direction
speed
KPH
gust
KPH
rain 1hr
cm
rain 24hr
cm
rain mn
cm
humidity
%
barometer
mb
20260507173048 14 146 1.6 12.9 0.00 0.00 0.00 35 1017.8
20260507171559 15 142 3.2 16.1 0.00 0.00 0.00 33 1017.8
20260507171503 15 113 4.8 16.1 0.00 0.00 0.00 34 1017.9
20260507170050 15 195 6.4 16.1 0.00 0.00 0.00 35 1017.8
20260507164505 16 181 3.2 19.3 0.00 0.00 0.00 28 1017.9
20260507163045 16 49 3.2 16.1 0.00 0.00 0.00 32 1017.7
20260507161511 16 198 4.8 11.3 0.00 0.00 0.00 32 1017.9
20260507160003 17 171 3.2 9.7 0.00 0.00 0.00 35 1018.1
20260507154522 17 147 4.8 14.5 0.00 0.00 0.00 35 1018.0
20260507153008 17 190 1.6 16.1 0.00 0.00 0.00 48 1018.3
20260507151529 17 238 3.2 12.9 0.00 0.00 0.00 44 1018.2
20260507150013 17 211 3.2 14.5 0.00 0.00 0.00 47 1018.1
20260507144534 17 236 3.2 11.3 0.00 0.00 0.00 44 1018.1
20260507143021 17 142 3.2 14.5 0.00 0.00 0.00 51 1018.2
20260507141542 17 196 4.8 16.1 0.00 0.00 0.00 49 1018.0
20260507140028 17 226 1.6 12.9 0.00 0.00 0.00 46 1018.1
20260507134545 17 58 4.8 16.1 0.00 0.00 0.00 46 1018.3
20260507133023 17 201 4.8 16.1 0.00 0.00 0.00 44 1018.3
20260507131551 17 222 1.6 12.9 0.00 0.00 0.00 41 1018.4
20260507130029 17 344 1.6 9.7 0.00 0.00 0.00 33 1018.4
20260507124539 17 163 1.6 9.7 0.00 0.00 0.00 24 1018.4
20260507123024 18 300 1.6 6.4 0.00 0.00 0.00 25 1018.5
20260507121554 18 96 1.6 9.7 0.00 0.00 0.00 23 1018.4
20260507120028 19 266 1.6 14.5 0.00 0.00 0.00 23 1018.5
20260507114559 20 207 1.6 11.3 0.00 0.00 0.00 25 1018.4
20260507113033 20 101 4.8 16.1 0.00 0.00 0.00 23 1018.5
20260507111550 20 262 1.6 6.4 0.00 0.00 0.00 27 1018.4
20260507110052 19 265 0.0 6.4 0.00 0.00 0.00 48 1018.5
20260507104505 20 302 1.6 8.0 0.00 0.00 0.00 44 1018.6
20260507103107 20 329 0.0 4.8 0.00 0.00 0.00 43 1018.7
20260507101503 20 346 1.6 8.0 0.00 0.00 0.00 29 1019.0
20260507100049 20 179 1.6 8.0 0.00 0.00 0.00 31 1019.0
20260507094502 20 288 4.8 11.3 0.00 0.00 0.00 45 1019.3
20260507093037 18 310 3.2 9.7 0.00 0.00 0.00 48 1019.1
20260507091547 17 301 0.0 3.2 0.00 0.00 0.00 40 1019.0
20260507090059 17 305 1.6 8.0 0.00 0.00 0.00 36 1018.1
20260507090000 18 301 1.6 8.0 0.00 0.00 0.00 34 1018.1
20260507084537 18 224 0.0 3.2 0.00 0.00 0.00 29 1018.7
20260507083028 18 338 0.0 3.2 0.00 0.00 0.00 37 1018.8
20260507081546 17 28 0.0 3.2 0.00 0.00 0.00 40 1019.2
20260507080029 17 348 1.6 6.4 0.00 0.00 0.00 47 1019.4
20260507074548 18 312 3.2 6.4 0.00 0.00 0.00 33 1019.3
20260507073014 17 212 1.6 4.8 0.00 0.00 0.00 36 1019.1
20260507071526 16 53 0.0 3.2 0.00 0.00 0.00 38 1019.2
20260507070009 16 36 0.0 3.2 0.00 0.00 0.00 38 1019.5
20260507064520 15 23 0.0 4.8 0.00 0.00 0.00 38 1019.6
20260507063052 15 280 0.0 4.8 0.00 0.00 0.00 38 1019.2
20260507061504 13 105 1.6 6.4 0.00 0.00 0.00 38 1018.9
20260507060034 13 63 0.0 3.2 0.00 0.00 0.00 53 1019.0
20260507054602 12 76 1.6 4.8 0.00 0.00 0.00 45 1019.2
20260507053010 11 115 0.0 0.0 0.00 0.00 0.00 55 1019.4
20260507051526 11 115 0.0 0.0 0.00 0.00 0.00 55 1019.5
20260507050019 10 115 0.0 0.0 0.00 0.00 0.00 54 1019.3
20260507044516 10 115 0.0 0.0 0.00 0.00 0.00 51 1018.8
20260507043100 10 115 0.0 0.0 0.00 0.00 0.00 50 1018.6
20260507041513 10 115 0.0 3.2 0.00 0.00 0.00 47 1018.4
20260507040001 10 115 0.0 0.0 0.00 0.00 0.00 45 1018.3
20260507034524 10 115 0.0 0.0 0.00 0.00 0.00 43 1018.2
20260507033014 10 115 0.0 0.0 0.00 0.00 0.00 44 1018.1
20260507031543 10 115 0.0 1.6 0.00 0.00 0.00 43 1017.9
20260507030019 10 113 0.0 0.0 0.00 0.00 0.00 42 1017.9
20260507024547 10 113 0.0 1.6 0.00 0.00 0.00 43 1018.2
20260507023021 10 113 0.0 0.0 0.00 0.00 0.00 43 1017.9
20260507021537 11 113 0.0 1.6 0.00 0.00 0.00 42 1017.8
20260507020012 11 153 0.0 0.0 0.00 0.00 0.00 44 1017.9
20260507014541 11 158 0.0 0.0 0.00 0.00 0.00 45 1018.1
20260507013014 11 158 0.0 3.2 0.00 0.00 0.00 50 1018.2
20260507011522 10 146 0.0 3.2 0.00 0.00 0.00 52 1017.9
20260507010011 10 147 0.0 0.0 0.00 0.00 0.00 56 1018.0
20260507004516 10 148 0.0 3.2 0.00 0.00 0.00 53 1018.2
20260507003021 10 126 0.0 3.2 0.00 0.00 0.00 50 1017.9
20260507001600 10 144 0.0 3.2 0.00 0.00 0.00 48 1018.0
20260507000036 10 173 0.0 3.2 0.00 0.00 0.00 43 1018.1
20260506234607 10 146 0.0 0.0 0.00 0.00 0.00 47 1018.0
20260506233050 10 146 0.0 4.8 0.00 0.00 0.00 40 1018.3
20260506231507 10 101 0.0 3.2 0.00 0.00 0.00 39 1018.1
20260506230041 10 140 0.0 3.2 0.00 0.00 0.00 41 1018.1
20260506224506 10 120 0.0 3.2 0.00 0.00 0.00 41 1018.1
20260506223043 10 128 1.6 3.2 0.00 0.00 0.00 39 1018.3
20260506221507 9 117 0.0 0.0 0.00 0.00 0.00 46 1018.3
20260506220047 9 116 0.0 1.6 0.00 0.00 0.00 48 1018.2
20260506214507 10 109 0.0 0.0 0.00 0.00 0.00 47 1018.2
20260506213044 10 109 0.0 1.6 0.00 0.00 0.00 50 1018.1
20260506211556 10 106 0.0 3.2 0.00 0.00 0.00 50 1018.2
20260506210031 11 98 0.0 6.4 0.00 0.00 0.00 48 1018.3
20260506204538 12 130 1.6 8.0 0.00 0.00 0.00 47 1018.6
20260506203023 12 55 0.0 14.5 0.00 0.00 0.00 50 1018.7
20260506201538 11 124 3.2 9.7 0.00 0.00 0.00 50 1018.8
20260506200030 11 72 0.0 0.0 0.00 0.00 0.00 60 1018.8
20260506194546 11 69 0.0 0.0 0.00 0.00 0.00 62 1018.8
20260506193041 11 144 0.0 0.0 0.00 0.00 0.00 62 1018.7
20260506191559 11 144 0.0 3.2 0.00 0.00 0.00 65 1018.7
20260506190026 11 71 0.0 1.6 0.00 0.00 0.00 63 1018.5
20260506184557 11 58 0.0 3.2 0.00 0.00 0.00 63 1018.5
20260506183033 11 103 0.0 3.2 0.00 0.00 0.00 60 1018.5
20260506181508 12 105 0.0 3.2 0.00 0.00 0.00 61 1018.1
20260506180041 12 60 0.0 3.2 0.00 0.00 0.00 58 1018.3
20260506174557 13 67 0.0 0.0 0.00 0.00 0.00 58 1018.2